KD8CJ Weather Reports


time (UTC)temp
F
wind
direction
speed
knots
gust
knots
rain 1hr
in
rain 24hr
in
rain mn
in
humidity
%
barometer
mb
20260508110023 43 294 0.0 0.9 0.00 0.00 0.00 82 1012.7
20260508104522 43 263 0.0 2.6 0.00 0.00 0.00 80 1012.4
20260508103021 43 274 0.0 0.9 0.00 0.00 0.00 82 1012.3
20260508101514 43 278 0.9 0.9 0.00 0.00 0.00 84 1012.2
20260508100018 43 265 0.0 1.7 0.00 0.00 0.00 84 1012.7
20260508094521 42 346 0.0 0.0 0.00 0.00 0.00 84 1012.4
20260508093025 43 346 0.0 0.0 0.00 0.00 0.00 84 1012.6
20260508091528 43 345 0.0 0.0 0.00 0.00 0.00 84 1013.1
20260508090033 44 346 0.0 0.0 0.00 0.00 0.00 84 1012.7
20260508084519 44 346 0.0 0.0 0.00 0.00 0.00 83 1012.5
20260508083006 45 346 0.0 0.0 0.00 0.00 0.00 80 1012.4
20260508081510 45 253 0.0 3.5 0.00 0.00 0.00 76 1012.7
20260508080012 44 176 0.9 3.5 0.00 0.00 0.00 76 1012.7
20260508074518 44 269 0.0 0.9 0.00 0.00 0.00 78 1013.1
20260508073022 44 269 0.0 0.9 0.00 0.00 0.00 80 1013.0
20260508071504 44 269 0.0 0.0 0.00 0.00 0.00 77 1013.1
20260508070009 44 269 0.0 0.9 0.00 0.00 0.00 79 1013.2
20260508064542 44 269 0.0 0.9 0.00 0.00 0.00 77 1013.0
20260508063017 44 269 0.0 0.9 0.00 0.00 0.00 74 1013.5
20260508061522 44 266 0.0 0.9 0.00 0.00 0.00 72 1013.1
20260508060004 44 289 0.0 0.9 0.00 0.00 0.00 71 1013.0
20260508054508 44 290 0.0 0.9 0.00 0.00 0.00 73 1013.1
20260508053015 42 290 0.0 0.0 0.00 0.00 0.00 78 1013.2
20260508051525 42 290 0.0 0.0 0.00 0.00 0.00 77 1013.4
20260508050032 43 290 0.0 0.0 0.00 0.00 0.00 76 1013.3
20260508044508 44 290 0.0 0.9 0.00 0.00 0.00 76 1013.2
20260508043013 44 290 0.0 0.0 0.00 0.00 0.00 75 1013.5
20260508041515 44 290 0.0 0.0 0.00 0.00 0.00 77 1013.6
20260508040025 44 290 0.0 0.9 0.00 0.00 0.00 75 1013.5
20260508034528 43 290 0.0 0.0 0.00 0.00 0.00 76 1013.4
20260508033006 43 290 0.0 0.0 0.00 0.00 0.00 76 1013.4
20260508031513 43 290 0.0 0.0 0.00 0.00 0.00 76 1013.4
20260508030020 43 352 0.0 0.0 0.00 0.00 0.00 74 1013.5
20260508024523 43 352 0.0 0.0 0.00 0.00 0.00 74 1013.3
20260508023026 42 352 0.0 0.0 0.00 0.00 0.00 73 1013.3
20260508021507 43 352 0.0 0.0 0.00 0.00 0.00 72 1013.3
20260508020015 43 352 0.0 0.0 0.00 0.00 0.00 68 1013.1
20260508014522 44 352 0.0 0.0 0.00 0.00 0.00 66 1013.2
20260508013026 45 352 0.0 0.0 0.00 0.00 0.00 65 1013.0
20260508011535 45 352 0.0 0.0 0.00 0.00 0.00 62 1012.7
20260508010020 46 352 0.0 0.0 0.00 0.00 0.00 62 1012.6
20260508004530 47 352 0.0 0.0 0.00 0.00 0.00 58 1012.7
20260508003020 48 352 0.0 0.0 0.00 0.00 0.00 56 1012.5
20260508001529 51 352 0.0 0.0 0.00 0.00 0.00 54 1012.4
20260508000026 52 251 0.0 1.7 0.00 0.00 0.00 47 1012.4
20260507234533 53 265 0.0 2.6 0.00 0.00 0.00 44 1012.2
20260507233023 54 340 0.0 2.6 0.00 0.00 0.00 45 1012.2
20260507231520 55 114 0.9 4.3 0.00 0.00 0.00 43 1012.2
20260507230023 55 226 0.9 2.6 0.00 0.00 0.00 42 1012.3
20260507224528 56 128 0.9 3.5 0.00 0.00 0.00 40 1012.4
20260507223027 58 257 0.9 6.1 0.00 0.00 0.00 41 1012.4
20260507221518 58 262 0.9 6.1 0.00 0.00 0.00 38 1012.4
20260507220024 57 274 2.6 9.6 0.00 0.00 0.00 39 1012.4
20260507214530 58 353 0.9 6.1 0.00 0.00 0.00 38 1012.3
20260507213026 58 243 0.9 4.3 0.00 0.00 0.00 44 1012.1
20260507211541 57 288 0.9 6.1 0.00 0.00 0.00 43 1012.0
20260507210022 57 247 1.7 7.8 0.00 0.00 0.00 43 1011.7
20260507204525 58 273 1.7 7.8 0.00 0.00 0.00 42 1011.6
20260507203008 59 239 2.6 5.2 0.00 0.00 0.00 41 1011.7
20260507201516 60 291 0.9 13.0 0.00 0.00 0.00 45 1011.4
20260507200015 60 320 1.7 5.2 0.00 0.00 0.00 43 1011.5
20260507194520 60 238 2.6 7.0 0.00 0.00 0.00 41 1011.6
20260507193005 60 341 1.7 6.1 0.00 0.00 0.00 41 1011.8
20260507191510 59 350 2.6 7.0 0.00 0.00 0.00 42 1011.8
20260507190017 59 116 1.7 8.7 0.00 0.00 0.00 38 1011.8
20260507184518 59 323 0.9 2.6 0.00 0.00 0.00 44 1011.7
20260507183022 58 307 0.9 5.2 0.00 0.00 0.00 47 1011.8
20260507181507 58 302 0.9 5.2 0.00 0.00 0.00 41 1011.7
20260507180010 58 229 1.7 6.1 0.00 0.00 0.00 46 1012.0
20260507174537 58 282 1.7 4.3 0.00 0.00 0.00 43 1012.1
20260507173023 58 253 0.9 8.7 0.00 0.00 0.00 41 1012.1
20260507171530 59 284 2.6 5.2 0.00 0.00 0.00 42 1012.2
20260507170006 58 323 0.0 6.1 0.00 0.00 0.00 41 1012.2
20260507164513 59 72 0.9 4.3 0.00 0.00 0.00 44 1012.3
20260507163020 59 27 0.9 6.1 0.00 0.00 0.00 46 1012.4
20260507161522 58 86 0.9 2.6 0.00 0.00 0.00 45 1012.4
20260507160024 58 283 1.7 5.2 0.00 0.00 0.00 40 1012.2
20260507154510 57 341 0.9 2.6 0.00 0.00 0.00 43 1012.2
20260507153017 57 15 1.7 4.3 0.00 0.00 0.00 44 1012.3
20260507151518 56 307 2.6 7.0 0.00 0.00 0.00 40 1012.3
20260507150023 56 21 0.9 7.0 0.00 0.00 0.00 41 1012.4
20260507144524 57 242 0.9 3.5 0.00 0.00 0.00 46 1012.5
20260507143011 55 276 1.7 6.1 0.00 0.00 0.00 48 1012.6
20260507141514 54 292 0.9 5.2 0.00 0.00 0.00 46 1012.7
20260507140035 53 324 0.9 4.3 0.00 0.00 0.00 52 1012.9
20260507134524 54 243 1.7 5.2 0.00 0.00 0.00 51 1013.0
20260507133024 54 233 1.7 7.8 0.00 0.00 0.00 58 1013.1
20260507131513 53 302 0.9 2.6 0.00 0.00 0.00 63 1013.2
20260507130015 52 219 0.0 0.9 0.00 0.00 0.00 67 1013.0
20260507124522 49 238 0.0 1.7 0.00 0.00 0.00 74 1013.1
20260507123028 47 264 0.0 1.7 0.00 0.00 0.00 76 1013.2
20260507121526 45 143 0.0 1.7 0.00 0.00 0.00 81 1013.1
20260507120026 43 187 0.0 1.7 0.00 0.00 0.00 86 1013.1
20260507114516 40 265 0.0 1.7 0.00 0.00 0.00 92 1013.1
20260507113055 38 255 0.0 0.9 0.00 0.00 0.00 95 1013.0
20260507111527 37 240 0.0 0.0 0.00 0.00 0.00 94 1012.9